Regional Weather Roundup
Issued by NWS

Home | Current Version | Previous Version | Text Only | Print | Product List | Glossary On
Versions: 1 2 3 4 5 6 7 8 9 10 11 12 13 14 15 16 17 18 19 20 21 22 23 24 25 26 27 28 29 30 31 32 33 34 35 36 37 38 39 40 41 42 43 44 45 46 47 48 49 50
000
ASUS44 KLIX 030012
RWRLA
LOUISIANA WEATHER ROUNDUP
NATIONAL WEATHER SERVICE NEW ORLEANS LA
700 PM CDT SUN AUG 02 2015

NOTE: "FAIR" INDICATES FEW OR NO CLOUDS BELOW 12,000 FEET WITH NO
      SIGNIFICANT WEATHER AND/OR OBSTRUCTIONS TO VISIBILITY.
      SKY/WX - SKY CONDITION AND SIGNIFICANT WEATHER.
      TMP - AIR TEMPERATURE.    DP   - DEWPOINT TEMPERATURE.
      RH  - RELATIVE HUMIDITY.  PRES - PRESSURE.
      HX  - HEAT INDEX.         WCI  - WIND CHILL INDEX.

*  THESE STATIONS ARE NOT NWS OR FAA STATIONS AND ARE NOT UNDER
   NWS QUALITY CONTROL.

LAZ040-048-061>063-065-066-069-030100-
SOUTHEAST LOUISIANA

CITY           SKY/WX    TMP DP  RH WIND       PRES   REMARKS
N.O. AUDUBON   NOT AVBL
N.O. INTL ARPT MOSUNNY   91  64  40 S10       29.85S
6HR MIN TEMP:  91; 6HR MAX TEMP:  96;

N.O. LAKEFRONT SUNNY     92  62  36 SE6       29.85F
6HR MIN TEMP:  91; 6HR MAX TEMP:  96;

N.O. DOWNTOWN* FAIR      95  64  36 S8        29.86S HX  97
6HR MIN TEMP:  93; 6HR MAX TEMP:  99;

RESERVE*       FAIR      93  60  32 CALM      29.86S
6HR MIN TEMP:  93; 6HR MAX TEMP:  98;

SLIDELL        CLEAR     91  66  43 SW3       29.85S
6HR MIN TEMP:  91; 6HR MAX TEMP:  96;

BATON ROUGE    SUNNY     93  64  38 E5        29.85S
6HR MIN TEMP:  93; 6HR MAX TEMP:  98;

BOOTHVILLE     CLEAR     86  75  69 S8        29.87F HX  95
6HR MIN TEMP:  86; 6HR MAX TEMP:  93;

BELLE CHASSE   CLEAR     89  67  47 S6        29.85F
6HR MIN TEMP:  89; 6HR MAX TEMP:  94;

BOGALUSA*        N/A     93  64  37 SW3       29.86F
6HR MIN TEMP:  93; 6HR MAX TEMP:  96;

GALLIANO*      NOT AVBL
NEW ROADS*     FAIR     N/A N/A N/A NW5       29.85S
GONZALES*      FAIR      89  72  57 CALM      29.84S HX  95
6HR MIN TEMP:  88; 6HR MAX TEMP:  95;

HAMMOND*       SUNNY     91  59  33 S7        29.87S
HOUMA*         NOT AVBL
PORT FOURCHON* CLEAR     88  75  66 S9        29.88R HX  97

$$

LAZ041-044-053-054-030100-
SOUTHWEST LOUISIANA

CITY           SKY/WX    TMP DP  RH WIND       PRES   REMARKS
LAKE CHARLES   SUNNY     94  62  34 SE7       29.84F
6HR MIN TEMP:  94; 6HR MAX TEMP:  96;

LAFAYETTE      SUNNY     93  64  38 CALM      29.85F
6HR MIN TEMP:  93; 6HR MAX TEMP:  98;

PATTERSON      SUNNY     90  72  55 SW5       29.87S HX  96
6HR MIN TEMP:  90; 6HR MAX TEMP:  93;

SALT POINT       N/A     91  70  49 MISG      29.84F HX  96
6HR MIN TEMP:  91; 6HR MAX TEMP:  93;

NEW IBERIA     SUNNY     93  62  35 E7        29.86S
6HR MIN TEMP:  93; 6HR MAX TEMP:  98;

CHENAULT AIRPK NOT AVBL

$$

LAZ027-028-030100-
CENTRAL LOUISIANA

CITY           SKY/WX    TMP DP  RH WIND       PRES   REMARKS
FORT POLK      SUNNY     93  61  34 E5        29.85S
6HR MIN TEMP:  92; 6HR MAX TEMP:  95;

ALEXANDRIA INT SUNNY     93  60  33 E6        29.83F
6HR MIN TEMP:  93; 6HR MAX TEMP:  98;

ALEXANDRIA     SUNNY     97  62  31 NE3       29.86S HX  98
6HR MIN TEMP:  97; 6HR MAX TEMP: 100; 6HR PCP: TRACE;


$$

LAZ001-002-030100-
NORTHWEST LOUISIANA

CITY           SKY/WX    TMP DP  RH WIND       PRES   REMARKS
SHREVEPORT     MOSUNNY   96  58  27 E6        29.86F HX  95
6HR MIN TEMP:  94; 6HR MAX TEMP:  99;

BARKSDALE AFB  SUNNY     94  60  31 VRB2      29.86F
6HR MIN TEMP:  94; 6HR MAX TEMP:  98;

DTN SHREVEPORT SUNNY     94  59  31 NE5       29.86F
6HR MIN TEMP:  92; 6HR MAX TEMP:  97;


$$

LAZ014-016-030100-
NORTHEAST LOUISIANA

CITY           SKY/WX    TMP DP  RH WIND       PRES   REMARKS
MONROE         SUNNY     94  67  41 NE6       29.87F HX  97
6HR MIN TEMP:  94; 6HR MAX TEMP:  98;

TALLULAH       SUNNY     93  65  39 N6        29.86F HX  95
6HR MIN TEMP:  93; 6HR MAX TEMP:  97;


$$




USA.gov is the U.S. government's official web portal to all federal, state and local government web resources and services.